This demonstration page uses our WeatherBlox Daily Observations layout. Learn more.

40.92945, -100.16068

Hourly Observations for October 28, 2020

Temp ( °F °C ) Dew Point ( °F °C ) Humidity (%) Winds ( mph kmh ) Pressure ( in mb ) Visibility ( mi km ) Precip ( " mm )
12:15 am 00:15 Clear 26 -3.5 19 -7 77 77 W 6 9 30.24 1024 10 16.0934 0 0
12:35 am 00:35 Clear 24 -4.2 19 -7 81 81 WNW 7 11 30.22 1023 10 16.0934 0 0
12:55 am 00:55 Clear 24 -4.4 19 -7.1 82 82 W 5 7 30.22 1023 10 16.0934 0 0
1:15 am 01:15 Clear 23 -5.2 19 -7.5 84 84 NW 5 7 30.21 1023 10 16.0934 0 0
1:35 am 01:35 Clear 22 -5.6 18 -7.8 85 85 Calm 30.2 1023 10 16.0934 0 0
1:55 am 01:55 Clear 20 -6.6 17 -8.3 88 88 WSW 3 6 30.21 1023 10 16.0934 0 0
2:15 am 02:15 Clear 22 -5.7 19 -7.4 88 88 SW 6 9 30.21 1023 10 16.0934 0 0
2:35 am 02:35 Clear 20 -6.7 17 -8.6 87 87 SSW 7 11 30.22 1023 10 16.0934 0 0
2:55 am 02:55 Clear 22 -5.6 18 -7.9 84 84 WNW 5 7 30.2 1023 10 16.0934 0 0
3:15 am 03:15 Clear 21 -6 17 -8.1 85 85 W 3 6 30.2 1023 10 16.0934 0 0
3:35 am 03:35 Clear 21 -6.2 17 -8.1 87 87 WNW 5 7 30.19 1022 10 16.0934 0 0
3:55 am 03:55 Clear 21 -6.2 18 -7.9 88 88 SSW 5 7 30.19 1022 10 16.0934 0 0
4:15 am 04:15 Clear 20 -6.5 16 -8.7 85 85 W 6 9 30.18 1022 10 16.0934 0 0
4:35 am 04:35 Clear 20 -6.5 17 -8.5 86 86 NW 6 9 30.17 1022 10 16.0934 0 0
4:55 am 04:55 Clear 19 -7.4 16 -9.1 88 88 NW 3 6 30.18 1022 10 16.0934 0 0
5:15 am 05:15 Clear 17 -8.5 14 -10.2 88 88 NW 5 7 30.18 1022 7 11.26538 0 0
5:35 am 05:35 Clear 16 -8.7 13 -10.3 88 88 NW 8 13 30.2 1023 7 11.26538 0 0
5:55 am 05:55 Clear 18 -7.7 15 -9.5 87 87 WNW 7 11 30.21 1023 10 16.0934 0 0
6:15 am 06:15 Clear 18 -7.6 15 -9.4 87 87 WNW 5 7 30.19 1023 10 16.0934 0 0
6:35 am 06:35 Clear 18 -7.6 15 -9.5 86 86 WNW 7 11 30.19 1023 10 16.0934 0 0
6:55 am 06:55 Clear 18 -7.7 15 -9.6 86 86 W 3 6 30.21 1023 10 16.0934 0 0
7:15 am 07:15 Clear 18 -8 14 -9.8 87 87 W 3 6 30.21 1023 10 16.0934 0 0
7:35 am 07:35 Clear 18 -7.8 15 -9.6 87 87 Calm 30.22 1023 10 16.0934 0 0
7:55 am 07:55 Clear 16 -8.7 13 -10.5 87 87 WNW 3 6 30.23 1024 10 16.0934 0 0
8:15 am 08:15 Sunny 17 -8.3 14 -9.9 88 88 WNW 6 9 30.22 1023 7 11.26538 0 0
8:35 am 08:35 Sunny 21 -6.1 17 -8.3 85 85 WNW 9 15 30.2 1023 10 16.0934 0 0
8:55 am 08:55 Sunny 22 -5.5 18 -7.8 84 84 NW 12 19 30.18 1022 10 16.0934 0 0
9:15 am 09:15 Sunny 24 -4.3 19 -7 82 82 NW 9 15 30.18 1022 10 16.0934 0 0
9:35 am 09:35 Sunny 27 -2.8 22 -5.6 81 81 WNW 12 19 30.15 1021 10 16.0934 0 0
9:55 am 09:55 Sunny 29 -1.5 23 -4.9 78 78 NW 12 19 30.13 1020 10 16.0934 0 0
10:15 am 10:15 Sunny 31 -0.5 24 -4.7 74 74 WNW 8 13 30.11 1020 10 16.0934 0 0
10:35 am 10:35 Sunny 33 0.4 25 -3.9 73 73 NW 10 17 30.1 1019 10 16.0934 0 0
10:55 am 10:55 Sunny 35 1.5 26 -3.2 71 71 W 6 9 30.09 1019 10 16.0934 0 0
11:15 am 11:15 Sunny 37 3 27 -2.6 67 67 NW 10 17 30.06 1018 10 16.0934 0 0
11:35 am 11:35 Sunny 39 3.7 28 -2.3 65 65 WNW 7 11 30.05 1018 10 16.0934 0 0
11:55 am 11:55 Sunny 41 5.1 29 -1.6 62 62 NW 8 13 30.04 1017 10 16.0934 0 0
12:15 pm 12:15 Sunny 44 6.4 30 -1.1 59 59 WNW 9 15 30.02 1017 10 16.0934 0 0
12:35 pm 12:35 Sunny 47 8.1 32 -0.2 56 56 WNW 6 9 30.01 1016 10 16.0934 0 0
12:55 pm 12:55 Sunny 49 9.7 32 -0.1 51 51 Calm 29.98 1015 10 16.0934 0 0
1:15 pm 13:15 Sunny 53 11.4 32 -0.1 45 45 Calm 29.98 1015 10 16.0934 0 0
1:35 pm 13:35 Sunny 54 12 32 -0.2 43 43 Calm 29.97 1015 10 16.0934 0 0
1:55 pm 13:55 Sunny 55 13 31 -0.3 40 40 E 3 6 29.94 1014 10 16.0934 0 0
2:15 pm 14:15 Sunny 59 15 30 -1 34 34 NE 6 9 29.93 1013 10 16.0934 0 0
2:35 pm 14:35 Sunny 61 16.2 31 -0.6 32 32 ENE 6 9 29.92 1013 10 16.0934 0 0
2:55 pm 14:55 Sunny 62 16.6 32 -0.1 32 32 NE 7 11 29.9 1013 10 16.0934 0 0
3:15 pm 15:15 Sunny 63 17.1 32 0 32 32 NNE 8 13 29.89 1012 10 16.0934 0 0
3:35 pm 15:35 Sunny 62 16.7 33 0.8 34 34 N 21 33 29.89 1012 10 16.0934 0 0
3:55 pm 15:55 Sunny 61 16.2 33 0.5 35 35 N 16 26 29.9 1012 10 16.0934 0 0
4:15 pm 16:15 Sunny 60 15.4 32 0.1 35 35 N 20 31 29.9 1013 10 16.0934 0 0
4:35 pm 16:35 Sunny 59 15 32 0.1 36 36 NNE 12 19 29.91 1013 10 16.0934 0 0
4:55 pm 16:55 Sunny 59 15 33 0.5 37 37 NNE 13 20 29.91 1013 10 16.0934 0 0
5:15 pm 17:15 Sunny 58 14.7 33 0.3 38 38 NNE 15 24 29.91 1013 10 16.0934 0 0
5:35 pm 17:35 Sunny 57 14.1 33 0.7 40 40 NNE 13 20 29.92 1013 10 16.0934 0 0
5:55 pm 17:55 Sunny 56 13.5 33 0.5 41 41 N 12 19 29.94 1014 10 16.0934 0 0
6:15 pm 18:15 Sunny 55 12.9 33 0.6 43 43 NNE 13 20 29.94 1014 10 16.0934 0 0
6:35 pm 18:35 Sunny 53 11.5 34 0.9 48 48 N 12 19 29.97 1015 10 16.0934 0 0
6:55 pm 18:55 Clear 52 11 34 1.3 52 52 N 9 15 29.98 1015 10 16.0934 0 0
7:15 pm 19:15 Clear 50 10.2 34 1.2 54 54 N 9 15 30.01 1016 10 16.0934 0 0
7:35 pm 19:35 Clear 49 9.3 34 1.1 57 57 N 9 15 30.05 1018 10 16.0934 0 0
7:55 pm 19:55 Clear 48 9.1 34 1.3 58 58 N 9 15 30.05 1018 10 16.0934 0 0
8:15 pm 20:15 Clear 46 8 34 1.1 62 62 N 8 13 30.07 1018 10 16.0934 0 0
8:35 pm 20:35 Clear 47 8.5 34 1.1 60 60 NNE 12 19 30.1 1019 10 16.0934 0 0
8:55 pm 20:55 Clear 47 8.2 34 1.1 61 61 NNE 10 17 30.13 1020 10 16.0934 0 0
9:15 pm 21:15 Clear 44 6.9 34 1.1 67 67 N 13 20 30.12 1020 10 16.0934 0 0
9:35 pm 21:35 Clear 44 6.8 34 1.3 68 68 N 16 26 30.12 1020 10 16.0934 0 0
9:55 pm 21:55 Clear 44 6.5 34 1.3 70 70 N 10 17 30.13 1020 10 16.0934 0 0
10:15 pm 22:15 Clear 42 5.6 34 1 73 73 N 9 15 30.14 1021 10 16.0934 0 0
10:35 pm 22:35 Clear 41 5.1 34 1 75 75 N 9 15 30.16 1021 10 16.0934 0 0
10:55 pm 22:55 Clear 41 4.8 34 0.9 76 76 N 13 20 30.17 1022 10 16.0934 0 0
11:15 pm 23:15 Clear 40 4.5 33 0.8 77 77 N 12 19 30.18 1022 10 16.0934 0 0
11:35 pm 23:35 Clear 39 4.1 33 0.7 79 79 N 12 19 30.19 1022 10 16.0934 0 0
11:55 pm 23:55 Clear 38 3.6 33 0.5 80 80 N 9 15 30.2 1023 10 16.0934 0 0

Powered by AerisWeather